sat.trackr.live / text

‹ back to catalog

USA 324

NORAD 51280 · 2022-006A

PAYLOAD ACTIVE UNKNOWN

§ Identity

Operator
Country
US
Launch date
2022-01-21
Launch site
AFETR
Launch vehicle
Mass (kg)
RCS (m²)

Purposes: comms

External: N2YO · Heavens-Above · Gunter

§ Orbital elements

Epoch: 2026-06-06T02:06:38.886912Z

Period
1,435.84 min
Inclination
0.7690°
Eccentricity
0.0002840
Mean motion
1.00289779 rev/d
Perigee alt
35,769.6 km
Apogee alt
35,793.5 km
Semi-major
42,159.7 km
B*
0.0000e+0
RAAN
83.2777°
Arg perigee
165.6787°
Mean anomaly
110.1567°
Rev number
1,602

§ Raw data

USA 3241 51280U 22006A   26157.08795008 -.00000058  00000+0  00000+0 0  99962 51280   0.7690  83.2777 0002840 165.6787 110.1567  1.00289779 16021

JSON: /api/v1/satellites/51280 · /tle

For live sub-satellite position, see the globe view (requires WebGL).

§ Visibility from observer

Set your observer location to see the next 7 days of passes ≥ 10°. The values pass through the URL so the page stays shareable.

No JS? Fill the form by hand. The geolocation button needs JavaScript.